sat.trackr.live / text

‹ back to catalog

STARLINK-5969

NORAD 55993 · 2023-042H

PAYLOAD ACTIVE UNKNOWN

§ Identity

Operator
Country
US
Launch date
2023-03-24
Launch site
AFETR
Launch vehicle
Mass (kg)
RCS (m²)

Purposes: comms

External: N2YO · Heavens-Above · Gunter

§ Orbital elements

Epoch: 2026-09-20T19:45:01.117440Z

Period
94.27 min
Inclination
43.0058°
Eccentricity
0.0001569
Mean motion
15.27566879 rev/d
Perigee alt
482.0 km
Apogee alt
484.2 km
Semi-major
6,861.2 km
B*
-4.4234e-5
RAAN
37.5104°
Arg perigee
273.2612°
Mean anomaly
86.8060°
Rev number
19,271

§ Raw data

STARLINK-59691 55993U 23042H   26263.82292960 -.00001479  00000+0 -44234-4 0  99922 55993  43.0058  37.5104 0001569 273.2612  86.8060 15.27566879192711

JSON: /api/v1/satellites/55993 · /tle

For live sub-satellite position, see the globe view (requires WebGL).

§ Visibility from observer

Set your observer location to see the next 7 days of passes ≥ 10°. The values pass through the URL so the page stays shareable.

No JS? Fill the form by hand. The geolocation button needs JavaScript.